Hattiesburg, MS

5:14 PM CDT on April 21, 2018 (GMT -0500)
Chain Municipal

Weather History for KHBG - January, 2013

Change the Weather History Date:

Wednesday, January 16, 2013

  Actual Average Record
Temperature  
Mean Temperature 41 °F 48 °F  
Max Temperature 44 °F 60 °F 80 °F (1952)
Min Temperature 37 °F 37 °F 21 °F (1972)
Degree Days  
Heating Degree Days 24 17  
Month to date heating degree days 214 265  
Since 1 July heating degree days 916 1050  
Cooling Degree Days 0 0  
Month to date cooling degree days 17 0  
Year to date cooling degree days 17 0  
Moisture  
Dew Point 37 °F    
Average Humidity 89    
Maximum Humidity 96    
Minimum Humidity 82    
Precipitation  
Precipitation 0.38 in 0.16 in 2.50 in (1955)
Month to date precipitation 6.07 2.83  
Year to date precipitation 6.07 2.83  
Sea Level Pressure  
Sea Level Pressure 30.08 in    
Wind  
Wind Speed 7 mph (NNW)    
Max Wind Speed 13 mph    
Max Gust Speed 17 mph    
Visibility 6 miles    
Events Rain    
T = Trace of Precipitation, MM = Missing Value Source: NWS Daily Summary

Daily Weather History Graph

Daily Weather History Graph

Search for Another Location

Airport or City:

Astronomy

Jan. 16, 2013 Rise Set
Actual Time 6:56 AM CST 5:18 PM CST
Civil Twilight 6:29 AM CST 5:44 PM CST
Nautical Twilight 6:00 AM CST 6:13 PM CST
Astronomical Twilight 5:31 AM CST 6:43 PM CST
Moon 9:56 AM CST (1/16) 10:43 PM CST (1/16)
Length of Visible Light 11h 14m
Length of Day
10h 22m
Waxing Crescent, 28% of the Moon is Illuminated
Jan 16
Waxing Crescent
Jan 18
First Quarter
Jan 26
Full
Feb 3
Last Quarter
Feb 10
New

Hourly Weather History & Observations

Time (CST) Temp. Windchill Dew Point Humidity Pressure Visibility Wind Dir Wind Speed Gust Speed Precip Events Conditions
12:53 AM 43.0 °F 38.2 °F 41.0 °F 93% 30.01 in 3.0 mi NNW 8.1 mph - N/A   Overcast
2:53 AM 42.1 °F 36.6 °F 39.0 °F 89% 30.04 in 4.0 mi NNW 9.2 mph - 0.00 in Rain Light Rain
3:53 AM 41.0 °F 39.0 °F 39.0 °F 93% 30.02 in 7.0 mi North 3.5 mph - 0.00 in   Overcast
4:53 AM 41.0 °F 36.4 °F 37.9 °F 89% 30.04 in 6.0 mi NW 6.9 mph - 0.02 in Rain Rain
6:53 AM 39.9 °F 33.9 °F 37.9 °F 93% 30.06 in 7.0 mi NW 9.2 mph - 0.07 in Rain Light Rain
7:18 AM 39.2 °F 34.2 °F 37.4 °F 93% 30.08 in 2.0 mi North 6.9 mph - 0.04 in Rain Heavy Rain
7:28 AM 39.2 °F 33.6 °F 37.4 °F 93% 30.09 in 3.0 mi NNW 8.1 mph - 0.06 in Rain Heavy Rain
7:35 AM 39.2 °F 33.6 °F 37.4 °F 93% 30.09 in 2.5 mi NNW 8.1 mph - 0.07 in Rain Rain
7:42 AM 39.2 °F 33.6 °F 37.4 °F 93% 30.09 in 2.5 mi North 8.1 mph - 0.08 in Rain Rain
7:53 AM 39.9 °F 34.5 °F 37.0 °F 89% 30.09 in 2.0 mi North 8.1 mph - 0.10 in Rain Rain
8:12 AM 39.2 °F 35.9 °F 37.4 °F 93% 30.09 in 2.0 mi NNW 4.6 mph - 0.03 in Rain Heavy Rain
8:28 AM 39.2 °F 35.0 °F 37.4 °F 93% 30.09 in 4.0 mi North 5.8 mph - 0.04 in Rain Light Rain
8:53 AM 39.9 °F 35.8 °F 37.0 °F 89% 30.11 in 2.5 mi North 5.8 mph - 0.05 in Rain Light Rain
9:35 AM 39.2 °F 35.9 °F 37.4 °F 93% 30.11 in 3.0 mi NNW 4.6 mph - 0.03 in Rain Light Rain
9:53 AM 41.0 °F 34.7 °F 37.9 °F 89% 30.10 in 7.0 mi NW 10.4 mph - 0.04 in Rain Light Rain
10:46 AM 41.0 °F 35.8 °F 37.4 °F 87% 30.10 in 2.5 mi NNW 8.1 mph - 0.03 in Rain Rain
10:53 AM 39.9 °F 35.8 °F 37.9 °F 93% 30.10 in 6.0 mi NNW 5.8 mph - 0.03 in Rain Light Rain
11:53 AM 39.9 °F 35.8 °F 37.9 °F 93% 30.09 in 6.0 mi NW 5.8 mph - 0.01 in Rain Light Rain
12:19 PM 41.0 °F 34.7 °F 37.4 °F 87% 30.07 in 10.0 mi North 10.4 mph - 0.01 in Rain Light Rain
12:41 PM 41.0 °F 35.2 °F 37.4 °F 87% 30.08 in 10.0 mi NNW 9.2 mph - 0.01 in   Overcast
12:53 PM 41.0 °F 34.7 °F 37.9 °F 89% 30.07 in 10.0 mi NNW 10.4 mph - 0.01 in   Overcast
1:53 PM 42.1 °F 37.1 °F 37.0 °F 82% 30.06 in 10.0 mi North 8.1 mph - N/A   Overcast
2:01 PM 42.8 °F 37.0 °F 37.4 °F 81% 30.07 in 10.0 mi NNW 10.4 mph - N/A   Overcast
2:32 PM 41.0 °F 36.4 °F 37.4 °F 87% 30.05 in 10.0 mi NNW 6.9 mph - N/A   Overcast
2:53 PM 42.1 °F 37.7 °F 37.9 °F 85% 30.05 in 10.0 mi North 6.9 mph - N/A   Overcast
3:53 PM 42.1 °F 38.4 °F 37.9 °F 85% 30.05 in 10.0 mi NNE 5.8 mph - N/A   Overcast
5:01 PM 42.8 °F 38.0 °F 37.4 °F 81% 30.07 in 10.0 mi NW 8.1 mph - N/A   Overcast
5:53 PM 41.0 °F 36.4 °F 37.9 °F 89% 30.10 in 4.0 mi NW 6.9 mph - N/A   Overcast
6:25 PM 39.2 °F 34.2 °F 37.4 °F 93% 30.10 in 2.5 mi WNW 6.9 mph - N/A   Overcast
6:38 PM 39.2 °F 35.0 °F 37.4 °F 93% 30.11 in 3.0 mi WNW 5.8 mph - 0.00 in   Overcast
6:53 PM 39.9 °F 35.1 °F 37.0 °F 89% 30.10 in 4.0 mi NW 6.9 mph - 0.00 in   Overcast
7:22 PM 39.2 °F 33.0 °F 37.4 °F 93% 30.10 in 6.0 mi NW 9.2 mph - N/A   Overcast
7:53 PM 39.0 °F 32.8 °F 36.0 °F 89% 30.12 in 7.0 mi NW 9.2 mph - N/A   Overcast
8:48 PM 37.4 °F 30.3 °F 35.6 °F 93% 30.11 in 10.0 mi NW 10.4 mph - N/A   Overcast
8:53 PM 37.9 °F 32.1 °F 35.1 °F 89% 30.11 in 10.0 mi NW 8.1 mph - N/A   Overcast
9:05 PM 37.4 °F 31.4 °F 35.6 °F 93% 30.11 in 10.0 mi NW 8.1 mph - N/A   Overcast
9:53 PM 37.9 °F 32.7 °F 35.1 °F 89% 30.10 in 9.0 mi NW 6.9 mph - N/A   Overcast
10:31 PM 37.4 °F 32.8 °F 35.6 °F 93% 30.10 in 2.5 mi WNW 5.8 mph - 0.00 in Rain Light Rain
10:42 PM 37.4 °F 33.8 °F 35.6 °F 93% 30.10 in 3.0 mi WNW 4.6 mph - 0.00 in Rain Light Rain
10:53 PM 37.9 °F 32.7 °F 35.1 °F 89% 30.10 in 6.0 mi NW 6.9 mph - 0.00 in   Overcast
11:53 PM 37.9 °F 32.1 °F 35.1 °F 89% 30.10 in 6.0 mi WNW 8.1 mph - N/A   Overcast